Weather History for Palm Springs, CA

Change the Weather History Date:

Saturday, April 20, 2013

  Actual Average Record
Temperature  
Mean Temperature 78 °F 72 °F  
Max Temperature 94 °F 86 °F 106 °F (1958)
Min Temperature 62 °F 58 °F 39 °F (1967)
Degree Days  
Heating Degree Days 0 0  
Month to date heating degree days 0 17  
Since 1 July heating degree days 760 868  
Cooling Degree Days 13 7  
Month to date cooling degree days 149 114  
Year to date cooling degree days 381 234  
Growing Degree Days 28 (Base 50)    
Moisture  
Dew Point 23 °F    
Average Humidity 16    
Maximum Humidity 25    
Minimum Humidity 6    
Precipitation  
Precipitation 0.00 in 0.01 in 0.05 in (1909)
Month to date precipitation 0.00 0.08  
Year to date precipitation 0.97 2.72  
Since 1 July precipitation 2.19 5.52  
Snow  
Snow 0.00 in - - ()
Month to date snowfall 0.0  
Year to date snowfall 0.0  
Since 1 July snowfall 0.0  
Snow Depth 0.00 in    
Sea Level Pressure  
Sea Level Pressure 29.88 in    
Wind  
Wind Speed 4 mph (East)    
Max Wind Speed 12 mph    
Max Gust Speed 17 mph    
Visibility 10 miles    
Events      
T = Trace of Precipitation, MM = Missing Value Source: NWS Daily Summary

Daily Weather History Graph

Daily Weather History Graph

Search for Another Location

Airport:

Trip Planner

Search our weather history database for the weather conditions in past years. The results will help you decide how hot, cold, wet, or windy it might be!

Date:

Astronomy

Apr. 20, 2013 Rise Set
Actual Time 6:08 AM PDT 7:21 PM PDT
Civil Twilight 5:42 AM PDT 7:47 PM PDT
Nautical Twilight 5:12 AM PDT 8:18 PM PDT
Astronomical Twilight 4:40 AM PDT 8:50 PM PDT
Moon 2:23 PM PDT (4/20) 2:45 AM PDT (4/20)
Length of Visible Light 14h 04m
Length of Day
13h 12m
Waxing Gibbous, 72% of the Moon is Illuminated
Apr 20
Waxing Gibbous
Apr 25
Full
May 2
Last Quarter
May 9
New
May 17
First Quarter

Hourly Weather History & Observations

Time (PDT) Temp. Dew Point Humidity Pressure Visibility Wind Dir Wind Speed Gust Speed Precip Events Conditions
12:53 AM 69.1 °F 24.1 °F 18% 29.93 in 10.0 mi Calm Calm - N/A   Clear
1:53 AM 66.0 °F 21.9 °F 19% 29.91 in 10.0 mi NNW 3.5 mph - N/A   Clear
2:53 AM 62.1 °F 27.0 °F 26% 29.89 in 10.0 mi Calm Calm - N/A   Clear
3:53 AM 64.9 °F 21.0 °F 19% 29.88 in 10.0 mi Calm Calm - N/A   Clear
4:53 AM 66.0 °F 18.0 °F 16% 29.87 in 10.0 mi NNW 8.1 mph - N/A   Clear
5:53 AM 64.0 °F 17.1 °F 16% 29.88 in 10.0 mi Calm Calm - N/A   Clear
6:53 AM 64.9 °F 21.9 °F 19% 29.90 in 10.0 mi NW 3.5 mph - N/A   Clear
7:53 AM 70.0 °F 19.9 °F 15% 29.92 in 10.0 mi Calm Calm - N/A   Clear
8:53 AM 75.9 °F 19.9 °F 12% 29.92 in 10.0 mi Calm Calm - N/A   Clear
9:53 AM 81.0 °F 21.9 °F 11% 29.92 in 10.0 mi SW 3.5 mph - N/A   Clear
10:53 AM 84.9 °F 21.9 °F 10% 29.92 in 10.0 mi East 6.9 mph - N/A   Clear
11:53 AM 88.0 °F 18.0 °F 8% 29.91 in 10.0 mi Variable 4.6 mph - N/A   Clear
12:53 PM 91.0 °F 18.0 °F 7% 29.89 in 10.0 mi ESE 6.9 mph - N/A   Clear
1:53 PM 91.0 °F 19.0 °F 7% 29.87 in 10.0 mi East 9.2 mph - N/A   Clear
2:53 PM 91.0 °F 19.0 °F 7% 29.85 in 10.0 mi Calm Calm - N/A   Clear
3:53 PM 93.0 °F 18.0 °F 6% 29.83 in 10.0 mi SE 4.6 mph - N/A   Clear
4:53 PM 93.0 °F 19.0 °F 7% 29.81 in 10.0 mi East 8.1 mph - N/A   Clear
5:53 PM 91.9 °F 19.9 °F 7% 29.81 in 10.0 mi ESE 6.9 mph - N/A   Clear
6:53 PM 88.0 °F 27.0 °F 11% 29.82 in 10.0 mi ESE 9.2 mph - N/A   Clear
7:53 PM 84.9 °F 28.0 °F 13% 29.84 in 10.0 mi Calm Calm - N/A   Clear
8:53 PM 82.9 °F 27.0 °F 13% 29.87 in 10.0 mi NNW 5.8 mph - N/A   Clear
9:53 PM 81.0 °F 30.0 °F 16% 29.89 in 10.0 mi Calm Calm - N/A   Clear
10:53 PM 79.0 °F 33.1 °F 19% 29.89 in 10.0 mi Calm Calm - N/A   Clear
11:53 PM 77.0 °F 34.0 °F 21% 29.90 in 10.0 mi WNW 5.8 mph - N/A   Clear